Location: Klein M�hlingen
(51.9472°N, 11.7453°E)
Time: 09:03:42
(UTC+00:00)

Daily predictions for brighter satellites

Satellite Brightness Start Highest point End
(mag) Time Altitude Azimuth Time Altitude Azimuth Time Altitude Azimuth
Ariane Rocket 3.1 18:29:24 10° SSE 18:34:28 83° WSW 18:39:34 10° NNW
STARLINK-1222 3.3 18:31:58 10° WNW 18:35:05 57° SSW 18:38:10 10° ESE
STARLINK-1211 3.3 18:32:27 10° WNW 18:35:33 57° SSW 18:38:39 10° SE
STARLINK-1214 3.3 18:32:53 10° WNW 18:35:59 56° SSW 18:39:05 10° SE
STARLINK-1241 3.7 18:32:09 10° WNW 18:36:19 89° N 18:40:28 10° ESE
STARLINK-1245 3.3 18:33:22 10° WNW 18:36:26 56° SSW 18:39:30 10° SE
STARLINK-1238 3.3 18:33:47 10° WNW 18:36:53 56° SSW 18:39:59 10° SE
ERBS 2.6 18:34:26 10° WNW 18:37:48 57° NNE 18:41:08 10° ESE
STARLINK-1205 3.3 18:34:43 10° WNW 18:37:48 55° SSW 18:40:51 10° SE
STARLINK-1204 3.3 18:35:11 10° WNW 18:38:15 55° SSW 18:41:18 10° SE
Meteor 1-16 Rocket 4.2 18:34:15 10° S 18:39:41 77° E 18:45:21 10° NNE
Cosmos 614 Rocket 4.1 18:34:55 10° S 18:40:01 57° ESE 18:45:08 10° NNE
CZ-2C R/B 2.9 18:35:13 10° SSE 18:40:03 88° ENE 18:44:50 10° NNW
STARLINK-1239 3.6 18:37:07 10° WNW 18:41:17 88° S 18:45:26 10° ESE
ATLAS CENTAUR R/B 3.3 18:39:01 10° NNW 18:41:56 19° NNE 18:44:43 10° ENE
MONITOR-E 3.7 18:40:45 10° SSE 18:43:22 88° WSW 18:46:02 10° NNW
STARLINK-29 4.2 18:41:23 10° SSW 18:44:04 24° SE 18:46:44 10° E
Cosmos 1190 Rocket 4.3 18:41:03 10° S 18:46:06 47° ESE 18:51:09 10° NE
STARLINK-1240 3.6 18:42:06 10° WNW 18:46:16 86° SSW 18:50:22 10° ESE
SJ-6B 2.9 18:42:25 10° SSE 18:46:33 80° ENE 18:50:42 10° NNW
Resurs 1-3 4.0 18:42:49 10° SE 18:46:59 45° ENE 18:51:12 10° N
Aureole 1 Rocket 4.0 18:40:12 10° S 18:47:16 61° ESE 18:52:43 10° NNE
BREEZE-M DEB (TANK) 4.5 18:40:43 10° W 18:47:50 46° SSW 18:50:44 10° SE
Cosmos 1300 3.9 18:45:15 10° SE 18:48:20 23° E 18:51:25 10° NE
Cosmos 2369 Rocket 4.4 18:44:49 10° NW 18:49:22 25° WSW 18:53:53 10° SSW
SL-24 R/B 4.4 18:46:57 10° NNE 18:50:44 36° E 18:54:12 10° SSE
STARLINK-1216 3.6 18:47:04 10° WNW 18:51:14 83° SSW 18:55:08 11° ESE
STARLINK-60 3.3 18:48:19 10° SW 18:51:30 46° SSE 18:54:40 10° E
CZ-2C R/B 4.1 18:49:05 10° NNE 18:53:35 42° E 18:57:58 10° S
Terra 4.0 18:53:21 10° ENE 18:54:09 10° NE 18:54:57 10° NE
STARLINK-1237 3.6 18:52:02 10° WNW 18:56:11 81° SSW 18:59:54 13° ESE
Cosmos 2058 Rocket 3.2 18:56:16 10° S 19:00:41 58° E 19:05:08 10° NNE
STARLINK-1202 3.6 18:57:02 10° WNW 19:01:11 78° SSW 19:04:42 14° ESE
Cosmos 1461 4.0 18:58:14 10° NW 19:02:36 47° SW 19:07:04 10° SSE
STARLINK-1228 4.3 19:00:36 10° W 19:03:10 27° SSW 19:05:31 11° SSE
Cosmos 1726 Rocket 3.6 18:58:55 10° S 19:03:21 90° NNW 19:07:50 10° N
SL-08 RB Rocket 3.8 18:59:00 10° SSE 19:03:35 84° WSW 19:08:16 10° NNW
DMSP B5D2-2 4.4 18:59:43 10° NNE 19:04:43 43° E 19:09:41 10° S
Cosmos 921 Rocket 3.0 19:00:34 10° NNW 19:04:46 84° WSW 19:08:58 10° SSE
Cosmos 1703 4.3 19:01:06 10° NNW 19:04:57 49° W 19:08:47 10° S
Cosmos 2341 Rocket 4.1 18:59:15 10° N 19:05:37 64° ENE 19:11:58 10° SSE
SL-4 R/B 1.5 19:04:28 10° WSW 19:07:50 65° SSE 19:10:57 12° E
Cosmos 1726 3.7 19:04:35 10° SW 19:08:07 39° WNW 19:11:39 10° N
CZ-4C R/B 3.6 19:03:18 10° NW 19:09:25 40° NNE 19:16:35 10° E
ERS-1 Rocket 4.5 19:07:01 12° E 19:10:12 21° NE 19:13:54 10° N
STARLINK-1246 3.7 19:06:59 10° WNW 19:11:07 72° SSW 19:14:15 17° ESE
Cosmos 1408 4.5 19:08:59 10° NNE 19:11:16 16° ENE 19:12:35 13° E
RESURS DK-1 3.7 19:07:59 10° NNW 19:11:37 28° NE 19:14:21 15° E
Cosmos 407 Rocket 3.4 19:06:29 10° SSW 19:11:38 83° ESE 19:16:47 10° NNE
Cosmos 1908 3.5 19:07:55 10° SSW 19:11:47 71° WNW 19:15:41 10° N
Cosmos 1340 Rocket 2.7 19:08:12 10° S 19:12:14 76° E 19:16:16 10° NNE
STARLINK-1201 4.0 19:09:15 10° W 19:12:19 37° SSW 19:14:33 16° SSE
FREGAT/IRIS 4.5 19:10:03 10° SSW 19:12:27 28° W 19:14:53 10° NW
Cosmos 2228 3.6 19:10:01 10° SSW 19:14:17 61° WNW 19:18:38 10° N
Cosmos 676 Rocket 4.2 19:10:13 10° S 19:15:17 50° ESE 19:20:21 10° NNE
STARLINK-1224 3.7 19:11:59 10° WNW 19:16:07 69° SSW 19:19:04 18° ESE
Cosmos 2218 Rocket 4.3 19:10:44 10° N 19:16:47 50° ENE 19:22:16 13° SSE
STARLINK-1203 3.8 19:14:07 10° WNW 19:18:18 65° SSW 19:21:13 19° SE
Cosmos 2058 3.5 19:14:44 10° N 19:18:36 37° ENE 19:21:10 18° SE
Cosmos 1943 4.2 19:13:19 10° SW 19:18:51 52° NW 19:24:26 10° NNE
Cosmos 220 Rocket 4.1 19:14:32 10° NNW 19:18:52 63° ENE 19:22:11 17° SE
MetOp-A 4.2 19:15:10 10° SSE 19:20:31 82° WSW 19:25:56 10° NNW
STARLINK-1225 3.7 19:16:59 10° WNW 19:21:06 66° SSW 19:23:51 20° SE
MOS 1 Rocket 3.7 19:15:59 10° NNE 19:21:19 56° E 19:26:40 10° S
Resurs 01 Rocket 1.6 19:17:43 11° SSE 19:21:52 69° ENE 19:26:16 10° N
CZ-2C R/B 2.7 19:17:35 10° NNE 19:22:39 52° E 19:27:43 10° S
STARLINK-52 3.4 19:21:16 10° SW 19:24:17 39° SSE 19:25:56 22° E
STARLINK-1230 3.8 19:21:57 10° WNW 19:26:03 63° SSW 19:28:37 22° SE
Cosmos 962 Rocket 4.5 19:20:20 10° N 19:26:32 88° W 19:32:39 10° S
Nadezhda 1 Rocket 4.3 19:20:20 10° SSW 19:26:42 74° WNW 19:33:04 10° N
BREEZE M DEB (TANK) 3.9 19:24:01 10° SSW 19:27:18 31° SE 19:35:17 10° ENE
Cosmos 1812 Rocket 4.2 19:25:20 16° SSE 19:28:14 34° E 19:32:09 10° NNE
Cosmos 1697 Rocket 3.6 19:23:50 10° NNW 19:29:04 36° NE 19:32:44 18° ESE
SL-8 Rocket 4.0 19:22:50 10° N 19:29:10 70° ENE 19:35:13 11° SSE
Cosmos 2151 4.3 19:26:01 10° NNE 19:29:27 24° ENE 19:30:59 19° E
SPOT 3 Rocket 3.9 19:24:27 10° S 19:29:39 66° WSW 19:34:51 10° NNW
Cosmos 1023 Rocket 4.4 19:25:25 10° SSW 19:30:35 90° SE 19:35:45 10° NNE
STARLINK-1243 3.8 19:26:55 10° WNW 19:31:00 59° SSW 19:33:24 23° SE
SL-24 R/B - RUBIN 2 4.4 19:25:29 10° SW 19:31:17 90° ENE 19:37:46 10° NE
ARGOS 4.4 19:26:11 10° SSW 19:31:17 42° W 19:36:23 10° NNW
FALCON 9 DEB 3.4 19:29:15 10° SW 19:32:37 47° SSE 19:34:32 22° E
Iridium 2 3.9 19:33:27 19° SSE 19:35:58 48° E 19:39:40 10° NNE
STARLINK-1236 3.9 19:31:55 10° WNW 19:35:58 56° SSW 19:38:11 25° SE
Cosmos 1954 Rocket 3.9 19:31:39 10° SSW 19:36:51 70° ESE 19:42:03 10° NNE
Cosmos 2181 Rocket 4.0 19:30:49 10° S 19:36:54 60° E 19:42:58 10° NNE
MINOTAUR IV R/B 4.5 19:33:40 10° SSW 19:38:06 72° ESE 19:42:35 10° NNE
Cosmos 2366 rocket 3.9 19:37:09 10° N 19:43:18 71° ENE 19:48:11 17° SSE
Cosmos 1076 Rocket 3.5 19:39:30 10° N 19:43:46 68° ENE 19:46:20 23° SSE
STARLINK-1269 4.0 19:41:52 10° WNW 19:45:54 51° SSW 19:47:44 28° SSE
Cosmos 1959 Rocket 4.5 19:41:12 10° N 19:47:33 77° ENE 19:52:36 16° SSE
Cosmos 1656 3.7 19:42:21 10° NNW 19:48:04 69° ENE 19:51:23 25° SE
Cosmos 1763 Rocket 3.5 19:43:20 10° NNW 19:48:33 71° ENE 19:51:29 26° SE
Landsat 7 4.1 19:46:17 26° SE 19:48:45 51° ENE 19:53:22 10° N
SL-16 R/B 4.2 19:46:15 10° NNW 19:50:00 18° NNE 19:53:44 10° ENE
STARLINK-1200 4.1 19:46:51 10° WNW 19:50:51 48° SSW 19:52:31 30° SSE
Cosmos 540 Rocket 4.1 19:47:12 10° NNW 19:52:08 43° NE 19:54:30 26° ESE
SPOT 1/Viking Rocket 3.9 19:50:06 26° SE 19:52:52 52° ENE 19:57:57 10° N
Cosmos 2208 Rocket 4.4 19:47:59 10° NNW 19:53:03 48° ENE 19:55:32 27° ESE
SeaSat 1 4.3 19:51:06 10° NNE 19:55:30 33° NW 19:59:52 10° WSW
STARLINK-1192 4.2 19:51:50 10° WNW 19:55:49 45° SSW 19:57:18 31° SSE
Cosmos 1455 3.2 19:56:33 28° E 19:56:33 28° E 19:59:46 10° NNE
Cosmos 2322 Rocket 4.3 19:53:21 10° NNW 19:56:58 17° NNE 20:00:35 10° ENE
Iridium 4 Rocket 2.9 19:53:00 10° N 19:57:12 66° E 19:59:06 30° SSE
USA 234 3.8 19:52:37 10° ENE 19:58:21 32° SE 20:04:05 10° SSW
Cosmos 1980 Rocket 3.2 19:54:06 10° NNW 19:59:14 35° NE 20:02:01 22° E
Cosmos 1174 4.4 19:56:04 10° NW 20:00:05 60° SW 20:02:39 26° SSE
Cosmos 1892 2.6 19:56:46 10° N 20:00:41 79° E 20:02:12 36° SSE
STARLINK-1244 4.3 19:56:55 10° WNW 20:00:52 43° SSW 20:02:10 32° SSE
Abrixas rocket 4.4 20:00:40 10° WSW 20:02:07 13° SSW 20:02:07 13° SSW
Cosmos 1814 Rocket 4.4 19:58:22 10° NNW 20:03:37 51° ENE 20:05:55 31° ESE
Cosmos 1825 2.8 20:01:41 10° N 20:05:15 37° ENE 20:05:39 36° E
STARLINK-1138 4.4 20:01:50 10° WNW 20:05:44 40° SSW 20:06:52 33° S
ATLAS 5 CENTAUR R/B 2.2 20:02:17 10° WSW 20:06:33 61° NW 20:11:28 10° NE
COSMOS 2455 4.2 20:03:40 10° NW 20:08:57 33° WSW 20:13:57 11° S
Cosmos-2242 3.5 20:08:41 37° ESE 20:09:10 38° E 20:13:13 10° NNE
STARLINK-1143 4.4 20:06:49 10° W 20:10:41 38° SSW 20:11:39 33° S
Cosmos 489 Rocket 4.4 20:07:04 10° NNW 20:13:20 80° ENE 20:16:28 31° SSE
ERBS 3.4 20:10:56 10° WNW 20:14:00 32° SW 20:14:20 31° SSW
Cosmos 1356 Rocket 3.7 20:13:46 44° ESE 20:14:19 47° E 20:18:24 10° NNE
STARLINK-1241 4.5 20:11:51 10° W 20:15:40 36° SSW 20:16:28 32° S
SAR-Lupe-2 3.6 20:16:07 10° NNE 20:19:42 78° WNW 20:21:14 32° SSW
STARLINK-29 2.9 20:16:43 10° WSW 20:19:44 77° SW 20:19:44 77° SW
Cosmos 2344 4.4 20:11:43 10° NW 20:20:29 64° NE 20:28:34 23° ESE
ATLAS CENTAUR R/B 1.2 20:17:41 10° NW 20:21:36 62° NE 20:22:10 54° E
IGS 5A 3.4 20:20:27 44° SSE 20:21:45 87° W 20:25:55 10° NNW
SWARM A 4.4 20:23:45 60° ENE 20:23:45 60° ENE 20:26:46 10° N
Cosmos 1300 4.3 20:20:20 10° SW 20:23:50 34° WNW 20:27:22 10° N
Cosmos 1821 Rocket 4.1 20:17:37 10° N 20:23:58 62° ENE 20:26:40 35° SE
USA 32 3.9 20:19:06 10° N 20:24:22 75° E 20:26:24 38° SSE
Spot 2 Rocket 3.8 20:22:15 26° S 20:25:08 64° WSW 20:30:15 10° NNW
Cosmos 2360 4.4 20:21:34 10° NNW 20:27:14 61° NE 20:29:15 39° ESE
Cosmos 841 Rocket 3.4 20:22:26 10° NNW 20:27:45 83° ENE 20:29:32 43° SSE
STARLINK-60 3.0 20:24:29 10° W 20:27:47 75° N 20:27:48 75° N
Cosmos 1850 Rocket 3.8 20:24:21 14° SSW 20:28:47 79° ESE 20:34:00 10° NNE
Mayak 0.9 20:27:12 10° NE 20:28:23 14° ENE 20:28:23 14° ENE
Cosmos 2278 3.9 20:24:57 10° NNW 20:30:36 61° NE 20:32:29 40° ESE
Terra 2.1 20:29:53 44° ESE 20:30:52 51° ENE 20:35:30 10° N
SPOT 5 2.6 20:31:40 55° SE 20:32:24 67° ENE 20:36:44 10° N
Cosmos 2082 Rocket 3.3 20:34:09 25° E 20:34:09 25° E 20:37:42 10° NE
Meteor 2-10 Rocket 3.5 20:33:52 41° SSE 20:35:37 66° E 20:41:04 10° NNE
Cosmos 1833 Rocket 2.9 20:39:01 44° ESE 20:39:24 45° ESE 20:44:45 10° NE
CARTOSAT-1 3.4 20:39:31 63° SSE 20:40:12 85° ENE 20:44:34 10° NNW
Cosmos 1408 3.0 20:43:02 10° NNW 20:46:38 54° W 20:46:55 52° WSW
SL-4 R/B 2.2 20:43:55 10° W 20:46:33 51° W 20:46:33 51° W
ERS-1 Rocket 3.0 20:47:01 46° S 20:48:29 76° WSW 20:53:32 10° NNW
RESURS DK-1 2.9 20:45:51 10° NW 20:49:51 48° WSW 20:50:15 46° SW
Cosmos 1766 Rocket 3.5 20:47:45 10° NNW 20:52:15 80° W 20:52:50 65° SSW
Cosmos 1570 Rocket 4.5 20:47:38 10° NNW 20:52:53 56° WSW 20:54:32 39° SSW
Okean 3 Rocket 3.8 20:49:23 10° NNW 20:53:46 65° W 20:54:33 54° SSW
BREEZE M DEB (TANK) 3.7 20:49:25 10° WSW 20:53:25 38° SW 20:53:25 38° SW
CZ-4C R/B 2.8 20:51:50 10° NW 20:58:49 88° NE 21:01:49 42° SE
Resurs 01 Rocket 4.1 20:55:59 10° SW 20:58:50 17° W 21:01:43 10° NW
COSMOS 2406 3.1 20:54:53 18° SSW 20:59:13 88° WNW 21:04:59 10° NNE
Cosmos 1500 Rocket 4.2 20:58:11 10° N 21:01:56 42° ENE 21:01:56 42° ENE
CZ-2C R/B 4.4 20:58:19 10° N 21:02:44 29° WNW 21:07:11 10° WSW
Cosmos 2151 3.8 21:02:57 10° NNW 21:06:56 42° W 21:07:34 39° WSW
Cosmos 1697 Rocket 3.1 21:07:46 10° NW 21:13:17 54° WSW 21:14:29 46° SSW
Cosmos 2369 4.0 21:07:54 10° NW 21:13:26 55° WSW 21:14:34 47° SSW
Cosmos 1408 Rocket 4.1 21:27:08 10° NNW 21:31:22 53° W 21:31:22 53° W
Cosmos 1455 3.9 21:31:25 27° W 21:32:01 28° WNW 21:35:24 10° N
Cosmos 1743 Rocket 3.8 21:29:47 10° N 21:33:44 68° NNW 21:33:44 68° NNW
SL-16 R/B 2.6 21:29:54 10° NNW 21:35:29 52° NE 21:36:11 49° ENE
Cosmos 2360 Rocket 3.5 21:30:59 10° NNW 21:35:56 30° NE 21:37:32 26° ENE
Thor Agena Rocket 3.9 21:32:09 10° NNE 21:36:20 50° ENE 21:36:20 50° ENE
Cosmos 1825 4.3 21:37:38 10° NW 21:40:28 21° W 21:40:28 21° W
Cosmos 836 Rocket 4.4 21:36:27 10° NNW 21:41:41 86° W 21:41:41 86° W
USA 234 3.1 21:35:25 10° ENE 21:42:00 81° SSE 21:48:34 10° WSW
Cosmos 2322 Rocket 2.6 21:36:55 10° NNW 21:42:26 50° NE 21:43:04 48° ENE
Cosmos 1980 Rocket 2.4 21:38:01 10° NW 21:43:32 56° WSW 21:43:48 55° SW
Cosmos 2221 3.3 21:46:37 48° NNE 21:46:37 48° NNE 21:49:49 10° NNE
ASTEX 1 3.8 21:50:00 56° W 21:50:04 56° W 21:54:57 10° NNW
Cosmos 1459 Rocket 4.5 21:44:57 10° N 21:51:05 46° ENE 21:51:40 45° E
ATLAS 5 CENTAUR R/B 4.0 21:48:16 10° WNW 21:52:10 25° NNW 21:56:33 10° NE
Meteor 2-3 Rocket 4.3 21:49:06 10° NNW 21:54:34 46° W 21:55:21 43° WSW
Cosmos 2333 Rocket 4.1 21:53:14 10° NNW 21:57:41 23° NE 22:00:27 16° ENE
ATLAS CENTAUR R/B 3.8 21:57:22 10° WNW 21:58:21 14° W 21:58:21 14° W
Cosmos 1727 Rocket 3.9 22:05:51 68° ESE 22:05:57 69° E 22:12:16 10° NNE
Mayak -0.2 22:01:54 10° N 22:04:58 44° NNW 22:04:58 44° NNW
Cosmos 1153 Rocket 4.4 22:01:53 10° N 22:08:15 89° WSW 22:08:42 79° S
Terra 3.4 22:08:45 25° W 22:08:53 25° W 22:12:49 10° NW
Cosmos 773 Rocket 4.4 22:08:51 10° NNW 22:13:37 58° NE 22:13:37 58° NE
Sich 1 4.0 22:12:00 10° N 22:15:12 47° N 22:15:12 47° N
Cosmos 1241 Rocket 4.4 22:10:15 10° NW 22:16:33 77° NE 22:17:01 73° E
Cosmos 2082 Rocket 2.5 22:15:56 57° W 22:16:42 63° NW 22:22:22 10° NNE
Cosmos 1802 Rocket 4.2 22:11:54 10° N 22:18:02 57° ENE 22:18:13 57° E
Cosmos 2100 Rocket 3.9 22:14:15 10° N 22:20:30 75° ENE 22:20:40 75° E
Cosmos 1486 Rocket 4.2 22:22:39 68° NNW 22:22:39 68° NNW 22:27:35 10° NNE
Cosmos 1833 Rocket 3.8 22:20:38 25° WSW 22:23:24 42° NW 22:28:46 10° NNE
Meteor 2-2 Rocket 4.3 22:24:29 73° WNW 22:24:29 73° WNW 22:30:06 10° N
Cosmos 968 Rocket 3.8 22:25:39 63° NNE 22:25:39 63° NNE 22:30:05 10° NNE
Cosmos 2173 Rocket 3.9 22:20:07 10° N 22:26:15 77° E 22:26:16 77° E
Cosmos 2219 Rocket 3.6 22:28:07 10° NNW 22:33:04 30° NE 22:34:42 26° ENE
ALOS 2 3.7 22:36:50 43° NNW 22:36:50 43° NNW 22:39:51 10° NNW
NOSS 2-1 (C) 4.4 22:32:53 10° NW 22:37:02 65° WNW 22:37:02 65° WNW
NOSS 2-1 (D) 4.5 22:37:07 10° NW 22:41:10 61° WNW 22:41:10 61° WNW
CZ-4C R/B 3.9 22:40:48 10° WNW 22:46:59 31° WSW 22:46:59 31° WSW
Cosmos 2237 4.3 22:46:24 10° NNW 22:51:39 74° N 22:51:39 74° N
Cosmos 1000 Rocket 4.4 22:56:39 87° ENE 22:56:39 87° ENE 23:02:56 10° N
Cosmos 1633 Rocket 4.4 22:53:24 10° NNW 22:56:12 37° NNW 22:56:12 37° NNW
Cosmos 2322 4.1 22:53:28 10° NNW 22:59:09 58° NE 22:59:14 58° ENE
COSMOS 2428 3.6 22:57:15 10° NNW 23:02:40 42° NE 23:03:37 39° ENE
Cosmos 1607 4.5 23:12:04 42° W 23:13:48 54° NW 23:19:58 10° NE
Cosmos 839 Rocket 4.1 23:14:56 65° E 23:14:56 65° E 23:21:22 10° NE
Meteor 1-20 Rocket 4.3 23:11:42 10° NNW 23:16:59 74° N 23:16:59 74° N
SL-16 R/B 3.5 23:14:20 10° NW 23:18:02 30° W 23:18:02 30° W
Cosmos 2360 Rocket 2.6 23:14:49 10° NW 23:19:17 54° WNW 23:19:17 54° WNW
CZ-2D R/B 4.4 23:18:38 10° ENE 23:21:08 13° E 23:21:40 13° E
Helios 1B rocket 4.2 23:20:02 10° NNE 23:22:09 28° NE 23:22:09 28° NE
USA 234 3.6 23:18:30 10° ENE 23:24:56 62° N 23:31:22 10° W
Cosmos 2322 Rocket 3.4 23:21:16 10° NW 23:24:52 31° WNW 23:24:52 31° WNW
Cosmos 2061 Rocket 4.3 23:24:55 10° NNW 23:30:49 56° W 23:30:49 56° W
Cosmos 923 Rocket 4.4 23:28:35 10° NNW 23:32:50 59° NNW 23:32:50 59° NNW
ATLAS 5 CENTAUR R/B 4.1 23:34:07 10° NW 23:38:21 26° NNE 23:43:08 10° ENE
MOS 1-B Rocket 4.2 23:33:29 10° NNE 23:39:41 74° WNW 23:40:21 68° WSW
Cosmos 2333 Rocket 2.3 23:37:11 10° NNW 23:42:25 73° N 23:42:25 73° N
Cosmos 2237 Rocket 3.5 23:38:35 10° NNW 23:43:51 37° NE 23:46:25 25° E
SME Rocket 4.5 23:43:23 10° N 23:46:10 35° NNW 23:46:10 35° NNW
Cosmos 2233 Rocket 3.9 23:41:41 10° NNW 23:47:50 76° W 23:47:50 76° W
Cosmos 1680 Rocket 3.9 23:44:51 10° NNW 23:49:10 61° NNW 23:49:10 61° NNW
SL-16 R/B 3.4 23:48:43 34° ESE 23:50:45 44° ENE 23:56:36 10° N
Lacrosse 5 rocket 3.9 23:54:19 13° ENE 23:54:19 13° ENE 23:54:49 10° ENE
Cosmos 44 Rocket 4.1 23:53:59 47° NNE 23:53:59 47° NNE 23:57:27 10° NE
